| time (UTC) | temp F | wind direction | speed MPH | gust MPH | rain 1hr in | rain 24hr in | rain mn in | humidity % | barometer mb |
| 20260903073056 | 75 | 157 | 9.0 | 16.0 | 0.00 | 0.11 | 0.00 | 51 | 1007.0 |
| 20260903071545 | 75 | 144 | 6.0 | 10.0 | 0.00 | 0.11 | 0.00 | 52 | 1007.0 |
| 20260903070044 | 74 | 174 | 7.0 | 11.0 | 0.00 | 0.11 | 0.00 | 54 | 1006.9 |
| 20260903064552 | 74 | 187 | 8.0 | 12.0 | 0.00 | 0.11 | 0.00 | 56 | 1006.9 |
| 20260903063040 | 75 | 194 | 9.0 | 16.0 | 0.00 | 0.11 | 0.00 | 55 | 1006.9 |
| 20260903061539 | 75 | 202 | 9.0 | 16.0 | 0.00 | 0.11 | 0.00 | 53 | 1006.8 |
| 20260903060036 | 76 | 206 | 10.0 | 14.0 | 0.00 | 0.11 | 0.00 | 53 | 1006.9 |
| 20260903054533 | 77 | 174 | 8.0 | 13.0 | 0.00 | 0.11 | 0.00 | 50 | 1006.8 |
| 20260903053029 | 78 | 182 | 9.0 | 13.0 | 0.00 | 0.11 | 0.00 | 49 | 1006.8 |
| 20260903051528 | 77 | 182 | 5.0 | 10.0 | 0.00 | 0.11 | 0.00 | 50 | 1006.8 |
| 20260903050024 | 78 | 165 | 6.0 | 13.0 | 0.00 | 0.11 | 0.00 | 50 | 1006.8 |
| 20260903044524 | 79 | 150 | 7.0 | 12.0 | 0.00 | 0.11 | 0.11 | 49 | 1006.8 |
| 20260903043023 | 79 | 178 | 6.0 | 12.0 | 0.00 | 0.11 | 0.11 | 49 | 1006.8 |
| 20260903041523 | 79 | 166 | 5.0 | 11.0 | 0.00 | 0.11 | 0.11 | 48 | 1006.7 |
| 20260903040025 | 80 | 188 | 5.0 | 11.0 | 0.00 | 0.11 | 0.11 | 48 | 1006.7 |
| 20260903034522 | 80 | 147 | 7.0 | 14.0 | 0.00 | 0.11 | 0.11 | 48 | 1006.7 |
| 20260903033021 | 80 | 154 | 7.0 | 13.0 | 0.00 | 0.11 | 0.11 | 48 | 1006.6 |
| 20260903031520 | 80 | 185 | 7.0 | 14.0 | 0.00 | 0.11 | 0.11 | 49 | 1006.4 |
| 20260903030028 | 79 | 138 | 6.0 | 14.0 | 0.00 | 0.11 | 0.11 | 48 | 1006.3 |
| 20260903024519 | 79 | 148 | 6.0 | 11.0 | 0.00 | 0.11 | 0.11 | 49 | 1006.1 |
| 20260903023020 | 79 | 148 | 5.0 | 10.0 | 0.00 | 0.11 | 0.11 | 48 | 1005.8 |
| 20260903021518 | 79 | 167 | 5.0 | 10.0 | 0.00 | 0.11 | 0.11 | 48 | 1005.8 |
| 20260903020034 | 79 | 151 | 6.0 | 10.0 | 0.03 | 0.11 | 0.11 | 50 | 1005.7 |
| 20260903014517 | 79 | 145 | 6.0 | 11.0 | 0.11 | 0.11 | 0.11 | 53 | 1005.5 |
| 20260903013018 | 80 | 146 | 8.0 | 17.0 | 0.11 | 0.11 | 0.11 | 50 | 1005.6 |
| 20260903011515 | 82 | 128 | 13.0 | 22.0 | 0.11 | 0.11 | 0.11 | 43 | 1005.7 |
| 20260903010014 | 80 | 209 | 24.0 | 39.0 | 0.07 | 0.07 | 0.07 | 1006.6 | |
| 20260903004513 | 85 | 191 | 5.0 | 6.0 | 0.00 | 0.00 | 0.00 | 42 | 1006.2 |
| 20260903003012 | 85 | 360 | 4.0 | 10.0 | 0.00 | 0.00 | 0.00 | 41 | 1006.1 |
| 20260903001511 | 86 | 123 | 9.0 | 15.0 | 0.00 | 0.00 | 0.00 | 41 | 1006.2 |
| 20260903000011 | 86 | 152 | 4.0 | 15.0 | 0.00 | 0.00 | 0.00 | 42 | 1006.3 |
| 20260902234510 | 87 | 147 | 12.0 | 18.0 | 0.00 | 0.00 | 0.00 | 40 | 1006.1 |
| 20260902233011 | 88 | 360 | 10.0 | 19.0 | 0.00 | 0.00 | 0.00 | 37 | 1006.0 |
| 20260902231509 | 89 | 167 | 10.0 | 18.0 | 0.00 | 0.00 | 0.00 | 37 | 1005.8 |
| 20260902230010 | 90 | 153 | 12.0 | 19.0 | 0.00 | 0.00 | 0.00 | 36 | 1005.6 |
| 20260902224508 | 91 | 172 | 10.0 | 19.0 | 0.00 | 0.00 | 0.00 | 36 | 1005.7 |
| 20260902223122 | 91 | 180 | 12.0 | 18.0 | 0.00 | 0.00 | 0.00 | 34 | 1005.8 |
| 20260902221505 | 91 | 360 | 8.0 | 19.0 | 0.00 | 0.00 | 0.00 | 36 | 1005.9 |
| 20260902220004 | 90 | 108 | 3.0 | 9.0 | 0.00 | 0.00 | 0.00 | 35 | 1006.2 |
| 20260902214504 | 93 | 315 | 3.0 | 11.0 | 0.00 | 0.00 | 0.00 | 36 | 1006.5 |
| 20260902213002 | 93 | 146 | 12.0 | 23.0 | 0.00 | 0.00 | 0.00 | 32 | 1006.2 |
| 20260902211502 | 93 | 163 | 11.0 | 20.0 | 0.00 | 0.00 | 0.00 | 34 | 1006.2 |
| 20260902210002 | 91 | 360 | 11.0 | 18.0 | 0.00 | 0.00 | 0.00 | 36 | 1006.1 |
| 20260902204635 | 90 | 360 | 12.0 | 21.0 | 0.00 | 0.00 | 0.00 | 38 | 1006.3 |
| 20260902203056 | 88 | 360 | 10.0 | 20.0 | 0.00 | 0.00 | 0.00 | 42 | 1006.9 |
| 20260902201553 | 86 | 180 | 18.0 | 29.0 | 0.00 | 0.00 | 0.00 | 42 | 1007.2 |
| 20260902200053 | 90 | 216 | 19.0 | 28.0 | 0.00 | 0.00 | 0.00 | 36 | 1007.2 |
| 20260902194551 | 93 | 117 | 9.0 | 21.0 | 0.00 | 0.00 | 0.00 | 32 | 1007.2 |
| 20260902193051 | 93 | 360 | 7.0 | 19.0 | 0.00 | 0.00 | 0.00 | 31 | 1007.3 |
| 20260902191548 | 93 | 197 | 11.0 | 20.0 | 0.00 | 0.00 | 0.00 | 32 | 1007.5 |
| 20260902190046 | 94 | 221 | 11.0 | 25.0 | 0.00 | 0.00 | 0.00 | 33 | 1007.6 |
| 20260902184543 | 93 | 236 | 15.0 | 21.0 | 0.00 | 0.00 | 0.00 | 33 | 1007.9 |
| 20260902183053 | 91 | 186 | 10.0 | 21.0 | 0.00 | 0.00 | 0.00 | 35 | 1008.4 |
| 20260902181540 | 91 | 221 | 16.0 | 24.0 | 0.00 | 0.00 | 0.00 | 34 | 1008.8 |
| 20260902180042 | 90 | 222 | 17.0 | 23.0 | 0.00 | 0.00 | 0.00 | 36 | 1009.0 |
| 20260902174532 | 89 | 193 | 16.0 | 20.0 | 0.00 | 0.00 | 0.00 | 37 | 1009.4 |
| 20260902173036 | 89 | 205 | 16.0 | 22.0 | 0.00 | 0.00 | 0.00 | 37 | 1009.5 |
| 20260902171531 | 89 | 190 | 12.0 | 22.0 | 0.00 | 0.00 | 0.00 | 38 | 1009.6 |
| 20260902170033 | 88 | 225 | 15.0 | 23.0 | 0.00 | 0.00 | 0.00 | 39 | 1009.8 |
| 20260902164530 | 87 | 212 | 16.0 | 24.0 | 0.00 | 0.00 | 0.00 | 41 | 1010.1 |
| 20260902163022 | 87 | 196 | 13.0 | 24.0 | 0.00 | 0.00 | 0.00 | 42 | 1010.2 |
| 20260902161518 | 85 | 215 | 17.0 | 25.0 | 0.00 | 0.00 | 0.00 | 43 | 1010.3 |
| 20260902160017 | 85 | 238 | 17.0 | 23.0 | 0.00 | 0.00 | 0.00 | 43 | 1010.2 |
| 20260902154513 | 84 | 232 | 16.0 | 23.0 | 0.00 | 0.00 | 0.00 | 45 | 1010.2 |
| 20260902153011 | 83 | 225 | 17.0 | 23.0 | 0.00 | 0.00 | 0.00 | 45 | 1010.2 |
| 20260902151506 | 81 | 213 | 17.0 | 20.0 | 0.00 | 0.00 | 0.00 | 47 | 1010.3 |
| 20260902150006 | 80 | 234 | 11.0 | 20.0 | 0.00 | 0.00 | 0.00 | 48 | 1010.4 |
| 20260902144600 | 79 | 217 | 11.0 | 17.0 | 0.00 | 0.00 | 0.00 | 48 | 1010.3 |
| 20260902143057 | 77 | 203 | 9.0 | 18.0 | 0.00 | 0.00 | 0.00 | 50 | 1010.3 |
| 20260902141554 | 75 | 215 | 9.0 | 17.0 | 0.00 | 0.00 | 0.00 | 53 | 1010.3 |
| 20260902140054 | 74 | 185 | 11.0 | 19.0 | 0.00 | 0.00 | 0.00 | 53 | 1010.2 |
| 20260902134551 | 73 | 211 | 13.0 | 19.0 | 0.00 | 0.00 | 0.00 | 55 | 1010.1 |
| 20260902133050 | 72 | 190 | 12.0 | 17.0 | 0.00 | 0.00 | 0.00 | 56 | 1010.0 |
| 20260902131546 | 72 | 201 | 12.0 | 21.0 | 0.00 | 0.00 | 0.00 | 56 | 1009.7 |
| 20260902130044 | 72 | 195 | 15.0 | 18.0 | 0.00 | 0.00 | 0.00 | 56 | 1009.5 |
| 20260902124543 | 72 | 193 | 14.0 | 19.0 | 0.00 | 0.00 | 0.00 | 56 | 1009.4 |
| 20260902123039 | 72 | 213 | 14.0 | 19.0 | 0.00 | 0.00 | 0.00 | 55 | 1009.3 |
| 20260902121539 | 73 | 209 | 15.0 | 18.0 | 0.00 | 0.00 | 0.00 | 54 | 1009.2 |
| 20260902120036 | 72 | 200 | 14.0 | 17.0 | 0.00 | 0.00 | 0.00 | 54 | 1009.1 |
| 20260902114535 | 72 | 207 | 11.0 | 17.0 | 0.00 | 0.00 | 0.00 | 54 | 1008.9 |
| 20260902113033 | 73 | 190 | 11.0 | 19.0 | 0.00 | 0.00 | 0.00 | 53 | 1008.9 |
| 20260902111531 | 73 | 203 | 13.0 | 21.0 | 0.00 | 0.00 | 0.00 | 52 | 1008.9 |
| 20260902110044 | 74 | 184 | 14.0 | 22.0 | 0.00 | 0.00 | 0.00 | 52 | 1009.0 |
| 20260902104550 | 74 | 213 | 15.0 | 20.0 | 0.00 | 0.00 | 0.00 | 52 | 1009.0 |
| 20260902103045 | 74 | 174 | 12.0 | 20.0 | 0.00 | 0.00 | 0.00 | 51 | 1008.9 |
| 20260902101525 | 75 | 222 | 15.0 | 22.0 | 0.00 | 0.00 | 0.00 | 50 | 1009.1 |
| 20260902100025 | 75 | 202 | 15.0 | 19.0 | 0.00 | 0.00 | 0.00 | 51 | 1009.1 |
| 20260902094523 | 74 | 221 | 14.0 | 21.0 | 0.00 | 0.00 | 0.00 | 52 | 1009.1 |
| 20260902093021 | 74 | 200 | 12.0 | 17.0 | 0.00 | 0.00 | 0.00 | 52 | 1009.2 |
| 20260902091519 | 74 | 198 | 12.0 | 18.0 | 0.00 | 0.00 | 0.00 | 52 | 1009.3 |
| 20260902090025 | 74 | 195 | 11.0 | 16.0 | 0.00 | 0.00 | 0.00 | 52 | 1009.4 |
| 20260902084516 | 74 | 183 | 10.0 | 17.0 | 0.00 | 0.00 | 0.00 | 52 | 1009.5 |
| 20260902083014 | 74 | 185 | 11.0 | 19.0 | 0.00 | 0.00 | 0.00 | 52 | 1009.5 |
| 20260902081510 | 73 | 200 | 8.0 | 15.0 | 0.00 | 0.00 | 0.00 | 53 | 1009.6 |
| 20260902080010 | 73 | 166 | 10.0 | 15.0 | 0.00 | 0.00 | 0.00 | 52 | 1009.7 |